Retour au catalogue

STARLINK-3897

ActifCommunicationsVLEO
NORAD 52537·PAYLOAD·🇺🇸 United States

Lancé May 13, 2022 depuis Vandenberg Space Force Base

Loading…

Prochains Passages (prochaines 24 heures)

TLE

FraisSource: CelesTrak SupGP

Époque: Sep 14, 2026, 22:02 UTC

1 52537C 22051E   26257.91854167 -.00033412  00000+0 -98726-3 0  2571
2 52537  53.1599 348.1662 0001324  79.7123 275.4192 15.34403729    14

Suivez STARLINK-3897 en temps réel avec AllMySat

Download on the App Store